TimeCEST,TemperatureF,Dew PointF,Humidity,Sea Level PressureIn,VisibilityMPH,Wind Direction,Wind SpeedMPH,Gust SpeedMPH,PrecipitationIn,Events,Conditions,WindDirDegrees,DateUTC
12:20 AM,73.4,66.2,78,30.04,-9999.0,West,5.8,-,N/A,,Clear,280,2012-10-01 22:20:00
12:50 AM,73.4,66.2,78,30.04,-9999.0,WSW,8.1,-,N/A,,Clear,240,2012-10-01 22:50:00
1:20 AM,71.6,66.2,83,30.04,-9999.0,WSW,9.2,-,N/A,,Clear,250,2012-10-01 23:20:00
1:50 AM,71.6,62.6,73,30.04,-9999.0,WSW,5.8,-,N/A,,Clear,250,2012-10-01 23:50:00
2:20 AM,71.6,60.8,69,30.04,-9999.0,WSW,5.8,-,N/A,,Clear,240,2012-10-02 00:20:00
2:50 AM,71.6,60.8,69,30.04,-9999.0,West,8.1,-,N/A,,Clear,260,2012-10-02 00:50:00
3:20 AM,69.8,60.8,73,30.01,-9999.0,West,5.8,-,N/A,,Clear,260,2012-10-02 01:20:00
3:50 AM,68.0,59.0,73,30.01,-9999.0,West,6.9,-,N/A,,Clear,280,2012-10-02 01:50:00
4:20 AM,69.8,59.0,68,30.01,-9999.0,NW,5.8,-,N/A,,Clear,310,2012-10-02 02:20:00
4:50 AM,69.8,57.2,64,30.01,-9999.0,West,10.4,-,N/A,,Clear,270,2012-10-02 02:50:00
5:50 AM,68.0,57.2,68,30.04,-9999.0,WSW,9.2,-,N/A,,Clear,240,2012-10-02 03:50:00
6:20 AM,66.2,57.2,73,30.04,-9999.0,WSW,8.1,-,N/A,,Clear,240,2012-10-02 04:20:00
6:50 AM,64.4,57.2,77,30.04,-9999.0,WSW,5.8,-,N/A,,Clear,240,2012-10-02 04:50:00
7:20 AM,64.4,57.2,77,30.04,-9999.0,West,4.6,-,N/A,,Clear,270,2012-10-02 05:20:00
7:50 AM,68.0,57.2,68,30.04,-9999.0,WSW,6.9,-,N/A,,Clear,250,2012-10-02 05:50:00
8:20 AM,69.8,55.4,60,30.04,-9999.0,WSW,9.2,-,N/A,,Clear,250,2012-10-02 06:20:00
8:50 AM,73.4,53.6,50,30.04,-9999.0,WSW,10.4,-,N/A,,Clear,250,2012-10-02 06:50:00
9:20 AM,75.2,53.6,47,30.06,-9999.0,West,11.5,-,N/A,,Clear,260,2012-10-02 07:20:00
9:50 AM,77.0,51.8,41,30.06,-9999.0,West,10.4,-,N/A,,Clear,260,2012-10-02 07:50:00
10:20 AM,80.6,50.0,34,30.06,-9999.0,West,12.7,-,N/A,,Clear,260,2012-10-02 08:20:00
10:50 AM,82.4,48.2,30,30.06,-9999.0,West,11.5,-,N/A,,Clear,260,2012-10-02 08:50:00
11:20 AM,82.4,46.4,28,30.06,-9999.0,WSW,12.7,-,N/A,,Clear,240,2012-10-02 09:20:00
11:50 AM,84.2,44.6,25,30.06,-9999.0,West,11.5,-,N/A,,Clear,260,2012-10-02 09:50:00
12:50 PM,86.0,44.6,23,30.04,-9999.0,WSW,12.7,-,N/A,,Clear,250,2012-10-02 10:50:00
1:20 PM,82.4,57.2,42,30.04,-9999.0,Variable,9.2,-,N/A,,Clear,0,2012-10-02 11:20:00
1:50 PM,80.6,59.0,48,30.04,-9999.0,ENE,16.1,-,N/A,,Clear,60,2012-10-02 11:50:00
2:20 PM,78.8,59.0,51,30.04,-9999.0,ENE,18.4,-,N/A,,Clear,60,2012-10-02 12:20:00
2:50 PM,78.8,60.8,54,30.04,-9999.0,ENE,15.0,-,N/A,,Clear,60,2012-10-02 12:50:00
3:20 PM,78.8,60.8,54,30.04,-9999.0,ENE,13.8,-,N/A,,Clear,60,2012-10-02 13:20:00
3:50 PM,78.8,60.8,54,30.04,6.2,ENE,12.7,-,N/A,,Partly Cloudy,70,2012-10-02 13:50:00
4:20 PM,78.8,60.8,54,30.04,6.2,East,12.7,-,N/A,,Partly Cloudy,80,2012-10-02 14:20:00
4:50 PM,78.8,62.6,57,30.04,6.2,East,12.7,-,N/A,,Partly Cloudy,80,2012-10-02 14:50:00
5:20 PM,77.0,62.6,61,30.04,6.2,East,11.5,-,N/A,,Partly Cloudy,80,2012-10-02 15:20:00
5:50 PM,77.0,62.6,61,30.04,6.2,East,10.4,-,N/A,,Scattered Clouds,80,2012-10-02 15:50:00
6:20 PM,77.0,62.6,61,30.04,6.2,East,8.1,-,N/A,,Scattered Clouds,90,2012-10-02 16:20:00
6:50 PM,75.2,62.6,65,30.06,6.2,East,5.8,-,N/A,,Scattered Clouds,100,2012-10-02 16:50:00
7:20 PM,75.2,59.0,57,30.06,6.2,ENE,12.7,-,N/A,,Scattered Clouds,60,2012-10-02 17:20:00
7:50 PM,75.2,59.0,57,30.06,6.2,NE,10.4,-,N/A,,Scattered Clouds,50,2012-10-02 17:50:00
8:20 PM,75.2,59.0,57,30.06,6.2,NE,9.2,-,N/A,,Scattered Clouds,50,2012-10-02 18:20:00
8:50 PM,73.4,59.0,61,30.06,6.2,ENE,4.6,-,N/A,,Scattered Clouds,70,2012-10-02 18:50:00
9:20 PM,73.4,59.0,61,30.09,6.2,WSW,2.3,-,N/A,,Scattered Clouds,250,2012-10-02 19:20:00
9:50 PM,71.6,59.0,64,30.09,6.2,West,6.9,-,N/A,,Scattered Clouds,260,2012-10-02 19:50:00
10:20 PM,69.8,60.8,73,30.09,6.2,West,6.9,-,N/A,,Scattered Clouds,280,2012-10-02 20:20:00
10:50 PM,69.8,59.0,68,30.09,6.2,West,8.1,-,N/A,,Partly Cloudy,280,2012-10-02 20:50:00
11:20 PM,68.0,59.0,73,30.09,6.2,West,6.9,-,N/A,,Partly Cloudy,270,2012-10-02 21:20:00
11:50 PM,69.8,59.0,68,30.09,6.2,West,6.9,-,N/A,,Partly Cloudy,260,2012-10-02 21:50:00